星链-3672 (STARLINK-3672 )

导读 | 豆包AI

STARLINK-3672是美国SpaceX星链(Starlink)星座的一颗互联网卫星,于2022年3月9日由猎鹰9号火箭发射,属于星链Group 4-16组网批次,重量约297kg,部署在近地轨道,当前运行高度约548km,倾角53.2°。它是星链全球低轨宽带互联网星座的组成部分,旨在为全球提供高速卫星互联网接入服务,目前已在轨运行超4年,承担星链星座的通信组网任务。

Basic Information
目录编号:
51974
目录名称:
STARLINK-3672
国际标识:
2022-025U
轨道中心:
EARTH
卫星名称:
星链-3672
卫星全名:
星链-3672 (STARLINK-3672 )
卫星状态:
在轨 (已飞行1514 天)
发射日期:
2022-03-09 UTC
国别 :
美国 (US)
星等 :
--
Orbit Information
数据来源 国际轨道数据 AOE轨道数据
星历时间 2026-04-30T20:52:14+0800
11小时前
查看轨道信息
2026-05-01T01:00:00+0800
7小时前
查看轨道信息
半长轴 6855.857km 6855.769km
偏心率 0.0001233 0.0001521
轨道倾角 53.156° 53.156°
近地点辐角 88.556° 79.742°
升交点赤经 155.878° 155.081°
平近点角 271.558° 148.236°
近地点 476.874km 476.589km
远地点 478.566km 478.675km
周期 94.157分钟 94.155分钟
每日圈数 15.293616 15.293909
Detailed Information
固有亮度:
5
最大亮度:
2.5
卫星平台:
Starlink v1.5
覆盖范围:
全球
运营商:
太空探索技术公司
运营商所在国:
美国
制造商(研发单位):
太空探索技术公司
制造商所在国:
美国
使用方式:
暂无
Satellite Introduction
星链(Starlink)计划是由太空探索技术公司(SpaceX)提出的一个巨型低轨卫星互联网星座项目,计划在2019年至2024年间在太空搭建由约1.2万颗卫星组成的“星链”网络,其中1584颗将部署在地球上空550千米处的近地轨道,并从2020年开始工作。该卫星仍在工作。
2D Orbit Map
3D Orbit Map
Orbit Altitude Analysis Chart
Orbit Inclination Analysis Chart
Orbit Comprehensive Analysis Chart
View Comprehensive Chart